Weather History for Granite Falls, MN

Change the Weather History Date:

Monday, May 12, 2014

  Actual Average (KMVE) Record (KMVE)
Temperature  
Mean Temperature 48 °F -  
Max Temperature 53 °F 69 °F 90 °F (1988)
Min Temperature 43 °F 45 °F 26 °F (1971)
Degree Days  
Heating Degree Days 17    
Moisture  
Dew Point 44 °F    
Average Humidity 91    
Maximum Humidity 94    
Minimum Humidity 84    
Precipitation  
Precipitation 0.09 in - - ()
Sea Level Pressure  
Sea Level Pressure 29.83 in    
Wind  
Wind Speed 18 mph (NW)    
Max Wind Speed 26 mph    
Max Gust Speed 37 mph    
Visibility 7 miles    
Events Rain    
Averages and records for this station are not official NWS values.
T = Trace of Precipitation, MM = Missing Value Source: NWS Daily Summary

Daily Weather History Graph

Daily Weather History Graph

Search for Another Location

Airport:

Trip Planner

Search our weather history database for the weather conditions in past years. The results will help you decide how hot, cold, wet, or windy it might be!

Date:

Astronomy

May. 12, 2014 Rise Set
Actual Time 5:57 AM CDT 8:40 PM CDT
Civil Twilight 5:23 AM CDT 9:14 PM CDT
Nautical Twilight 4:41 AM CDT 9:56 PM CDT
Astronomical Twilight 3:52 AM CDT 10:46 PM CDT
Moon 6:34 PM CDT (5/12) 4:43 AM CDT (5/12)
Length of Visible Light 15h 50m
Length of Day
14h 43m
Waxing Gibbous, 95% of the Moon is Illuminated
May 12
Waxing Gibbous
May 14
Full
May 21
Last Quarter
May 28
New
Jun 5
First Quarter

Hourly Weather History & Observations

Time (CDT) Temp. Windchill Dew Point Humidity Pressure Visibility Wind Dir Wind Speed Gust Speed Precip Events Conditions
12:11 AM 53.2 °F - 50.9 °F 92% 29.81 in 7.0 mi NNW 18.4 mph 21.9 mph N/A Rain Light Rain
12:30 AM 53.1 °F - 50.9 °F 92% 29.80 in 7.0 mi NW 19.6 mph 25.3 mph 0.02 in Rain Rain
12:51 AM 53.2 °F - 50.9 °F 92% 29.79 in 7.0 mi North 20.7 mph 26.5 mph 0.03 in Rain Rain
1:11 AM 53.2 °F - 50.5 °F 91% 29.76 in 10.0 mi North 20.7 mph 26.5 mph 0.01 in Rain Light Rain
1:31 AM 52.7 °F - 50.2 °F 91% 29.74 in 10.0 mi NNE 19.6 mph 25.3 mph 0.02 in Rain Light Rain
1:51 AM 52.9 °F - 50.2 °F 91% 29.75 in 10.0 mi North 15.0 mph 24.2 mph 0.02 in   Mostly Cloudy
2:11 AM 53.2 °F - 50.4 °F 90% 29.76 in 10.0 mi NNW 11.5 mph 16.1 mph N/A   Overcast
2:31 AM 52.9 °F - 50.4 °F 91% 29.76 in 10.0 mi NW 10.4 mph 16.1 mph N/A   Overcast
2:51 AM 52.3 °F - 50.2 °F 92% 29.76 in 10.0 mi NW 12.7 mph - N/A   Overcast
3:11 AM 52.3 °F - 50.0 °F 92% 29.76 in 10.0 mi NW 13.8 mph - N/A   Overcast
3:31 AM 52.3 °F - 50.0 °F 92% 29.76 in 7.0 mi NW 13.8 mph 19.6 mph N/A   Overcast
3:51 AM 52.7 °F - 50.0 °F 91% 29.76 in 10.0 mi NW 15.0 mph 20.7 mph N/A   Overcast
4:11 AM 52.7 °F - 49.8 °F 90% 29.76 in 10.0 mi NNW 15.0 mph 20.7 mph N/A   Overcast
4:31 AM 52.7 °F - 50.0 °F 91% 29.77 in 10.0 mi NW 13.8 mph 19.6 mph N/A   Overcast
4:51 AM 50.7 °F - 48.4 °F 92% 29.76 in 5.0 mi NW 16.1 mph 23.0 mph N/A   Light Drizzle
5:11 AM 48.9 °F - 46.6 °F 92% 29.75 in 7.0 mi NW 16.1 mph 23.0 mph N/A   Overcast
5:31 AM 47.8 °F - 45.7 °F 92% 29.74 in 7.0 mi NW 19.6 mph 27.6 mph N/A   Overcast
5:50 AM 47.1 °F - 44.8 °F 92% 29.75 in 7.0 mi NW 18.4 mph 28.8 mph N/A   Overcast
6:11 AM 46.4 °F 39.2 °F 44.1 °F 92% 29.75 in 7.0 mi NW 18.4 mph 24.2 mph N/A   Overcast
6:31 AM 46.4 °F 40.7 °F 43.9 °F 91% 29.77 in 7.0 mi NW 12.7 mph - N/A   Overcast
6:51 AM 46.2 °F 39.8 °F 43.9 °F 92% 29.77 in 7.0 mi NNW 15.0 mph 23.0 mph N/A   Overcast
7:11 AM 46.4 °F 40.7 °F 43.7 °F 90% 29.78 in 7.0 mi NW 12.7 mph 24.2 mph N/A   Overcast
7:31 AM 46.4 °F 39.8 °F 43.7 °F 90% 29.78 in 7.0 mi NW 16.1 mph 21.9 mph N/A   Overcast
7:51 AM 45.5 °F 38.9 °F 43.2 °F 92% 29.80 in 3.0 mi NW 15.0 mph 24.2 mph N/A   Overcast
8:11 AM 45.5 °F 38.9 °F 43.3 °F 92% 29.80 in 2.5 mi WNW 15.0 mph 19.6 mph N/A   Overcast
8:31 AM 45.5 °F 37.6 °F 43.3 °F 92% 29.79 in 3.0 mi NW 20.7 mph - N/A   Overcast
9:31 AM 44.2 °F 37.0 °F 42.4 °F 93% 29.82 in 3.0 mi NW 16.1 mph 20.7 mph N/A   Overcast
9:51 AM 44.1 °F 36.8 °F 42.4 °F 94% 29.81 in 2.5 mi NW 16.1 mph 23.0 mph N/A   Overcast
10:11 AM 44.2 °F 37.0 °F 42.6 °F 94% 29.82 in 2.5 mi WNW 16.1 mph 25.3 mph N/A   Overcast
10:30 AM 44.4 °F 36.9 °F 42.8 °F 94% 29.83 in 5.0 mi NW 17.3 mph 23.0 mph N/A   Overcast
10:51 AM 44.2 °F 36.7 °F 42.3 °F 93% 29.83 in 10.0 mi WNW 17.3 mph - N/A   Overcast
11:11 AM 44.2 °F 36.7 °F 42.3 °F 93% 29.82 in 5.0 mi NW 17.3 mph 20.7 mph N/A   Overcast
11:31 AM 44.6 °F 37.4 °F 42.6 °F 93% 29.83 in 7.0 mi NW 16.1 mph 24.2 mph N/A   Overcast
11:51 AM 44.2 °F 36.4 °F 42.3 °F 93% 29.82 in 3.0 mi NW 18.4 mph 21.9 mph N/A   Overcast
12:11 PM 44.2 °F 37.3 °F 42.3 °F 93% 29.82 in 3.0 mi NW 15.0 mph - N/A   Overcast
12:31 PM 44.4 °F 36.4 °F 42.4 °F 93% 29.82 in 3.0 mi WNW 19.6 mph - N/A   Overcast
12:50 PM 44.2 °F 36.4 °F 42.4 °F 93% 29.82 in 2.5 mi NW 18.4 mph 25.3 mph N/A   Overcast
1:11 PM 43.9 °F 36.2 °F 41.9 °F 93% 29.84 in 3.0 mi WNW 17.3 mph - N/A   Overcast
1:31 PM 43.7 °F 36.0 °F 41.7 °F 93% 29.84 in 1.8 mi WNW 17.3 mph - N/A   Drizzle
1:51 PM 44.6 °F 36.9 °F 43.0 °F 94% 29.83 in 1.8 mi WNW 18.4 mph 23.0 mph 0.01 in Rain Light Rain
2:31 PM 44.2 °F 36.4 °F 42.1 °F 92% 29.84 in 3.0 mi NW 18.4 mph 23.0 mph N/A   Light Drizzle
2:51 PM 44.1 °F 36.2 °F 41.9 °F 92% 29.85 in 4.0 mi WNW 18.4 mph 24.2 mph N/A   Light Drizzle
3:12 PM 44.2 °F 36.7 °F 42.1 °F 92% 29.85 in 1.8 mi NW 17.3 mph 23.0 mph 0.01 in Rain Rain
3:31 PM 44.6 °F 37.4 °F 42.4 °F 92% 29.84 in 2.5 mi NW 16.1 mph 21.9 mph 0.02 in   Light Drizzle
3:51 PM 44.6 °F 38.1 °F 42.4 °F 92% 29.85 in 2.5 mi WNW 13.8 mph 24.2 mph 0.02 in   Light Drizzle
4:11 PM 44.8 °F 37.7 °F 42.8 °F 93% 29.84 in 3.0 mi WNW 16.1 mph - N/A Rain Light Rain
4:31 PM 44.6 °F 36.9 °F 42.1 °F 91% 29.85 in 4.0 mi WNW 18.4 mph - N/A   Overcast
4:51 PM 44.6 °F 37.2 °F 42.1 °F 91% 29.86 in 3.0 mi WNW 17.3 mph 25.3 mph N/A Rain Rain
5:10 PM 44.6 °F 37.2 °F 42.1 °F 91% 29.86 in 2.0 mi WNW 17.3 mph 21.9 mph N/A   Light Drizzle
5:31 PM 45.3 °F 37.6 °F 43.0 °F 92% 29.86 in 4.0 mi NW 19.6 mph 27.6 mph 0.01 in Rain Light Rain
5:51 PM 45.1 °F 37.1 °F 42.8 °F 91% 29.87 in 5.0 mi WNW 20.7 mph 28.8 mph 0.01 in   Overcast
6:11 PM 44.8 °F 37.1 °F 42.1 °F 90% 29.88 in 10.0 mi WNW 18.4 mph 26.5 mph N/A   Overcast
6:31 PM 45.1 °F 37.1 °F 42.3 °F 90% 29.87 in 10.0 mi WNW 20.7 mph 27.6 mph N/A   Overcast
6:51 PM 45.1 °F 37.1 °F 41.9 °F 88% 29.87 in 10.0 mi NW 20.7 mph 28.8 mph N/A   Overcast
7:11 PM 45.1 °F 36.4 °F 41.5 °F 87% 29.87 in 10.0 mi NW 24.2 mph 29.9 mph N/A   Overcast
7:31 PM 45.3 °F 36.7 °F 41.7 °F 87% 29.88 in 10.0 mi WNW 24.2 mph - N/A   Overcast
7:51 PM 45.5 °F 38.1 °F 41.5 °F 86% 29.89 in 10.0 mi WNW 18.4 mph 27.6 mph N/A   Overcast
8:10 PM 45.3 °F 36.5 °F 41.4 °F 86% 29.89 in 10.0 mi WNW 25.3 mph 31.1 mph N/A   Overcast
8:51 PM 44.8 °F 36.2 °F 41.0 °F 87% 29.91 in 10.0 mi WNW 23.0 mph 29.9 mph N/A   Overcast
9:11 PM 44.6 °F 35.5 °F 40.6 °F 86% 29.91 in 10.0 mi WNW 25.3 mph 33.4 mph N/A   Overcast
9:31 PM 44.6 °F 35.3 °F 41.0 °F 87% 29.91 in 10.0 mi WNW 26.5 mph 36.8 mph N/A   Overcast
10:31 PM 44.6 °F 36.4 °F 40.3 °F 85% 29.93 in 10.0 mi WNW 20.7 mph 33.4 mph N/A   Overcast
10:51 PM 44.6 °F 36.1 °F 40.1 °F 84% 29.94 in 10.0 mi WNW 21.9 mph 33.4 mph N/A   Overcast
11:11 PM 44.6 °F 35.3 °F 40.1 °F 84% 29.94 in 10.0 mi WNW 26.5 mph 29.9 mph N/A   Overcast
11:31 PM 44.4 °F 35.7 °F 40.1 °F 85% 29.95 in 10.0 mi WNW 23.0 mph 32.2 mph N/A   Overcast
11:51 PM 44.1 °F 35.4 °F 39.7 °F 85% 29.95 in 10.0 mi WNW 21.9 mph 31.1 mph N/A   Overcast